SCP
0 0 0 0 0 0 0 0 0 0 0 0 0 0 0 0 0 0 0 0 0 0 0 0 0 0 0 0 0 0 0 0 0 0 0 0 0 0
0 0 0 0 0 0 0 0 0 0 0 0 0 0 0 0 0 0 0 0 0 0 0 0 0 0 0 0 0 0 0 0 0 0 0 0 0 0
0 0 0 0 0 0 0 0 0 0 0 0 0 0 0 0 0 0 0 0 0 0 0 0 0 0 0 0 0 0 0 0 0 0 0 0 0 0
0 0 0 0 0 0 0 0 0 0 0 0 0 0 0 0 0 0 0 0 0 0 0 0 0 0 0 0 0 0 0 0 0 0 0 0 0 0
0 0 0 0 0 0 0 0 0 0 0 0 0 0 0 0 0 0 0 0 0 0 0 0 0 0 0 0 0 0 0 0 0 0 0 0 0 0
0 0 0 0 0 0 0 0 0 0 0 0 0 0 0 0 0 0 0 0 0 0 0 0 0 0 0 0 0 0 0 0 0 0 0 0 0 0
0 0 0 0 0 0 0 0 0 0 0 0 0 0 0 0 0 0 0 0 0 0 0 0 0 0 0 0 0 0 0 0 0 0 0 0 0 0
0 0 0 0 0 0 0 0 0 0 0 0 0 0 0 0 0 0 0 0 0 0 0 0 0 0 0 0 0 0 0 0 0 0 0 0 0 0
0 0 0 0 0 0 0 0 0 0 0 0 0 0 0 0 0 0 0 0 0 0 0 0 0 0 0 0 0 0 0 0 0 0 0 0 0 0
0 0 0 0 0 0 0 0 0 0 0 0 0 0 0 0 0 0 0 0 0 0 0 0 0 0 0 0 0 0 0 0 0 0 0 0 0 0
0 0 0 0 0 0 0 0 0 0 0 0 0 0 0 0 0 0 0 0 0 0 0 0 0 0 0 0 0 0 0 0 0 0 0 0 0 0
0 0 0 0 0 0 0 0 0 0 0 0 0 0 0 0 0 0 0 0 0 0 0 0 0 0 0 0 0 0 0 0 0 0 0 0 0 0
0 0 0 0 0 0 0 0 0 0 0 0 0 0 0 0 0 0 0 0 0 0 0 0 0 0 0 0 0 0 0 0 0 0 0 0 0 0
0 0 0 0 0 0 0 0 0 0 0 0 0 0 0 0 0 0 0 0 0 0 0 0 0 0 0 0 0 0 0 0 0 0 0 0 0 0
0 0 0 0 0 0 0 0 0 0 0 0 0 0 0 0 0 0 0 0 0 0 0 0 0 0 0 0 0 0 0 0 0 0 0 0 0 0
0 0 0 0 0 0 0 0 0 0 0 0 0 0 0 0 0 0 0 0 0 0 0 0 0 0 0 0 0 0 0 0 0 0 0 0 0 0
0 0 0 0 0 0 0 0 0 0 0 0 0 0 0 0 0 0 0 0 0 0 0 0 0 0 0 0 0 0 0 0 0 0 0 0 0 0
0 0 0 0 0 0 0 0 0 0 0 0 0 0 0 0 0 0 0 0 0 0 0 0 0 0 0 0 0 0 0 0 0 0 0 0 0 0
0 0 0 0 0 0 0 0 0 0 0 0 0 0 0 0 0 0 0 0 0 0 0 0 0 0 0 0 0 0 0 0 0 0 0 0 0 0
0 0 0 0 0 0 0 0 0 0 0 0 0 0 0 0 0 0 0 0 0 0 0 0 0 0 0 0 0 0 0 0 0 0 0 0 0 0
0 0 0 0 0 0 0 0 0 0 0 0 0 0 0 0 0 0 0 0 0 0 0 0 0 0 0 0 0 0 0 0 0 0 0 0 0 0
0 0 0 0 0 0 0 0 0 0 0 0 0 0 0 0 0 0 0 0 0 0 0 0 0 0 0 0 0 0 0 0 0 0 0 0 0 0
0 0 0 0 0 0 0 0 0 0 0 0 0 0 0 0 0 0 0 0 0 0 0 0 0 0 0 0 0 0 0 0 0 0 0 0 0 0
Wind_Speed
3 3 3 2 2 2 2 3 3 2 3 2 1 1 1 1 2 2 2 3 3 3 4 4 4 4 5 4 4 3 3 3 3 4 4 4 5 6
3 3 3 2 2 2 2 2 2 3 3 2 2 1 1 1 2 2 2 4 4 4 4 4 4 3 4 4 4 5 4 4 4 5 5 5 6 7
3 4 4 4 3 3 2 2 2 3 3 2 1 1 1 1 2 1 2 2 2 4 5 5 4 4 4 5 5 5 5 5 5 5 5 6 6 7
5 5 4 3 4 4 3 4 3 3 3 3 2 1 2 2 1 2 2 2 2 4 5 5 4 4 5 5 5 5 5 5 5 5 6 6 7 8
5 6 6 5 5 4 4 4 3 3 3 3 2 1 1 1 0 1 1 1 2 3 5 5 5 5 6 6 5 6 6 6 6 6 6 6 7 7
6 6 6 6 6 6 5 5 4 3 3 3 2 2 2 1 1 1 1 2 2 2 3 4 5 5 6 6 6 6 6 6 6 6 6 6 6 7
5 6 6 8 8 7 5 5 5 4 3 3 3 2 3 2 3 2 2 1 2 2 1 2 2 2 3 5 6 6 6 7 7 7 7 7 6 7
5 5 6 7 8 10 10 9 8 7 6 5 4 5 5 4 3 3 2 2 3 2 2 3 2 3 3 3 6 8 8 8 8 8 7 7 7 7
6 5 5 5 7 6 8 9 9 11 10 7 6 7 6 6 5 4 5 4 4 2 2 3 2 4 3 4 8 9 8 8 8 8 7 7 7 7
6 6 6 6 6 6 6 6 6 7 8 7 7 7 5 5 6 5 4 2 1 2 2 3 2 3 3 3 7 9 8 7 7 7 8 7 7 7
6 6 6 6 9 9 7 7 6 6 7 9 9 8 8 8 6 3 3 3 3 3 2 3 2 2 2 3 4 7 7 7 7 7 8 8 7 6
5 6 9 9 10 10 7 7 7 6 4 4 5 6 5 6 8 6 5 5 3 3 3 3 2 1 2 2 2 2 3 6 7 8 8 8 7 4
4 4 5 10 11 10 9 7 8 6 4 4 3 3 3 3 4 4 4 5 5 4 3 3 2 2 3 3 2 2 2 2 3 4 7 8 8 5
4 4 4 9 10 10 8 8 8 6 3 3 3 3 3 3 3 3 3 3 3 5 4 4 3 4 3 3 3 2 2 2 2 3 3 6 7 7
4 7 7 8 8 7 8 7 5 3 3 3 4 3 3 3 2 2 2 2 1 2 3 4 4 4 3 4 3 3 3 3 2 3 3 3 3 3
4 5 7 7 6 5 4 4 3 4 4 4 3 2 2 2 3 3 2 2 2 2 2 3 4 4 4 4 4 4 3 3 2 2 3 3 3 3
2 2 2 2 2 1 2 2 2 3 3 3 3 3 3 3 3 2 2 2 3 3 2 1 2 2 2 3 3 4 3 3 3 2 2 3 3 3
2 2 2 2 2 2 2 2 2 2 3 3 3 3 3 3 3 2 2 3 3 3 3 2 1 1 1 2 3 4 3 3 2 2 2 3 4 4
2 2 2 2 2 2 3 3 3 3 3 3 3 3 3 3 3 3 3 2 3 3 2 2 2 3 3 3 2 3 3 2 2 2 3 3 4 4
1 2 2 2 2 2 2 2 2 2 2 3 3 3 3 3 3 3 3 3 3 2 2 2 2 3 4 3 2 3 4 3 3 3 3 3 4 5
1 1 2 2 2 2 2 2 3 3 3 3 3 3 3 3 3 3 3 4 3 3 3 3 3 3 1 1 1 2 2 3 3 3 2 2 2 2
1 1 2 2 2 2 2 2 2 3 3 3 3 3 3 3 3 3 3 3 3 3 3 2 1 1 1 2 3 3 2 2 3 4 3 3 2 2
1 1 1 1 2 1 2 2 2 2 2 3 3 3 3 3 2 3 3 3 3 3 2 1 1 1 1 2 2 2 2 2 2 2 2 4 5 5
Wind_Direction
214 210 206 215 202 202 184 171 168 205 246 242 237 229 224 202 229 204 213 248 264 270 278 291 302 306 307 309 314 292 291 292 291 293 297 301 301 298
211 207 213 210 206 206 205 196 186 186 227 236 225 263 268 266 242 216 222 254 257 260 265 272 282 288 298 302 303 302 291 282 275 277 285 294 299 298
215 210 219 205 203 209 204 196 198 186 216 257 239 241 214 236 265 239 226 223 240 255 259 264 267 275 282 290 289 294 292 282 274 276 283 290 294 294
215 210 220 212 206 204 200 202 206 197 190 229 247 221 223 226 238 241 245 241 231 251 255 259 261 270 277 281 281 284 289 279 272 271 274 280 285 289
213 213 214 207 211 205 206 207 207 211 195 203 237 230 227 209 241 274 254 242 255 258 256 253 257 267 271 274 277 278 284 279 270 270 272 274 278 282
218 218 213 209 212 203 209 207 197 197 197 200 223 229 218 207 183 214 255 236 255 272 258 260 260 267 267 271 273 276 278 278 269 267 272 272 274 278
219 221 220 221 224 219 215 203 194 197 200 206 219 226 222 204 211 205 234 262 265 248 247 258 260 261 263 265 265 266 268 269 270 267 271 271 271 275
221 226 225 227 231 234 233 228 215 206 205 210 222 224 227 220 209 206 206 239 260 220 223 265 250 254 255 250 261 266 266 266 267 264 266 269 268 274
221 226 232 229 236 225 232 237 235 234 225 214 220 225 222 215 203 210 214 225 245 219 221 263 247 257 257 257 262 264 265 266 266 266 267 269 267 271
225 224 226 226 226 223 221 228 234 235 232 225 221 225 226 214 206 209 212 228 269 243 209 245 248 257 268 260 261 259 262 264 268 271 272 269 267 266
229 228 227 226 237 234 224 225 235 241 246 245 240 237 235 229 212 184 187 200 240 236 211 218 232 271 276 264 257 259 263 268 272 275 277 274 267 265
231 230 236 237 241 236 224 218 230 233 224 240 245 243 230 221 219 204 198 204 220 232 200 194 207 223 275 261 244 249 257 263 269 273 276 275 268 256
239 233 232 241 243 239 237 225 235 233 212 217 221 213 201 204 209 209 208 208 215 229 200 185 205 213 231 267 279 260 245 255 266 269 273 273 268 259
244 240 239 246 244 242 240 241 241 233 202 202 211 213 208 213 214 212 213 219 224 226 204 196 210 210 219 251 262 260 258 251 254 264 267 270 266 263
244 247 252 250 245 239 240 243 231 205 194 206 219 223 219 213 204 199 195 197 223 232 213 212 212 215 221 232 246 249 266 266 249 251 256 256 252 248
247 250 254 250 243 243 245 233 219 209 203 209 214 212 196 195 206 204 205 202 226 248 228 213 210 209 229 236 235 246 243 248 252 255 261 264 260 244
231 223 230 227 220 225 232 232 221 209 207 198 195 195 200 207 216 213 211 215 220 225 238 228 200 201 222 226 237 236 240 252 250 250 259 270 266 254
232 219 221 214 217 218 221 231 222 213 211 203 201 201 206 210 216 218 215 214 219 217 216 212 192 200 275 274 233 233 236 244 250 246 242 257 273 267
221 219 221 220 224 224 222 219 223 216 206 204 206 207 207 208 206 211 211 217 222 218 216 207 201 200 226 257 263 239 236 245 250 255 251 247 260 266
212 216 223 229 228 227 222 219 222 212 199 200 202 203 203 203 205 212 211 213 220 216 218 216 218 218 221 233 248 273 258 243 240 252 263 269 271 278
254 241 230 224 228 223 219 216 216 217 205 196 199 201 203 201 209 215 214 221 221 213 219 232 241 241 216 140 245 275 286 271 264 250 242 260 286 288
271 256 248 232 230 225 219 215 214 215 204 199 200 203 205 203 206 211 211 216 219 216 228 244 217 194 189 202 232 252 279 308 299 292 285 253 232 229
273 273 262 239 226 223 216 212 210 211 205 199 199 201 199 204 207 203 209 216 208 203 202 217 238 220 219 216 225 240 262 294 311 320 310 302 294 290